Romeoville, IL

8:28 PM CDT on March 30, 2017 (GMT -0500)
Lewis University

Weather History for KLOT - January, 2013

Change the Weather History Date:

Thursday, January 3, 2013

  Actual Average Record
Temperature  
Mean Temperature 24 °F 24 °F  
Max Temperature 31 °F 31 °F 57 °F (1998)
Min Temperature 17 °F 16 °F -11 °F (2014)
Degree Days  
Heating Degree Days 41 41  
Month to date heating degree days 135 123  
Since 1 July heating degree days 2320 2509  
Cooling Degree Days 0 0  
Month to date cooling degree days 0 0  
Year to date cooling degree days 0 0  
Moisture  
Dew Point 19 °F    
Average Humidity 75    
Maximum Humidity 88    
Minimum Humidity 59    
Precipitation  
Precipitation 0.00 in 0.07 in 0.69 in (1998)
Month to date precipitation 0.00 0.22  
Year to date precipitation 0.00 0.22  
Snow  
Snow 0.00 in 0.30 in 0.50 in (1999)
Month to date snowfall 0.0 1.0  
Since 1 July snowfall 1.0 11.2  
Snow Depth 0.00 in    
Sea Level Pressure  
Sea Level Pressure 30.19 in    
Wind  
Wind Speed 11 mph (West)    
Max Wind Speed 18 mph    
Max Gust Speed 24 mph    
Visibility 10 miles    
Events      
T = Trace of Precipitation, MM = Missing Value Source: NWS Daily Summary

Daily Weather History Graph

Daily Weather History Graph

Search for Another Location

Airport or City:

Trip Planner

Search our weather history database for the weather conditions in past years. The results will help you decide how hot, cold, wet, or windy it might be!

Date:

Astronomy

Jan. 03, 2013 Rise Set
Actual Time 7:19 AM CST 4:34 PM CST
Civil Twilight 6:48 AM CST 5:06 PM CST
Nautical Twilight 6:13 AM CST 5:41 PM CST
Astronomical Twilight 5:39 AM CST 6:14 PM CST
Moon 11:15 PM CST (1/3) 10:25 AM CST (1/3)
Length of Visible Light 10h 18m
Length of Day
9h 15m
Waning Gibbous, 65% of the Moon is Illuminated
Jan 3
Waning Gibbous
Jan 4
Last Quarter
Jan 11
New
Jan 18
First Quarter
Jan 26
Full

Hourly Weather History & Observations

Time (CST) Temp. Windchill Dew Point Humidity Pressure Visibility Wind Dir Wind Speed Gust Speed Precip Events Conditions
12:15 AM 21.6 °F 10.6 °F 14.4 °F 74% 30.10 in 10.0 mi SW 10.4 mph - N/A   Overcast
12:35 AM 21.7 °F 13.2 °F 14.7 °F 74% 30.10 in 10.0 mi SW 6.9 mph - N/A   Overcast
12:55 AM 21.9 °F 13.4 °F 15.3 °F 76% 30.09 in 10.0 mi SSW 6.9 mph - N/A   Overcast
1:15 AM 22.3 °F 13.9 °F 15.6 °F 76% 30.10 in 10.0 mi SW 6.9 mph - N/A   Overcast
1:35 AM 22.6 °F 13.4 °F 16.0 °F 76% 30.10 in 10.0 mi SW 8.1 mph - N/A   Overcast
1:55 AM 23.7 °F 14.7 °F 16.9 °F 75% 30.10 in 10.0 mi SW 8.1 mph - N/A   Overcast
2:15 AM 24.4 °F 14.9 °F 17.6 °F 75% 30.11 in 10.0 mi WSW 9.2 mph - N/A   Overcast
2:35 AM 24.8 °F 14.6 °F 18.1 °F 76% 30.11 in 10.0 mi WSW 10.4 mph - N/A   Overcast
2:55 AM 25.2 °F 15.7 °F 18.3 °F 75% 30.11 in 10.0 mi WSW 9.2 mph - N/A   Overcast
3:15 AM 24.3 °F 14.6 °F 18.3 °F 78% 30.11 in 10.0 mi WSW 9.2 mph - N/A   Mostly Cloudy
3:35 AM 23.9 °F 14.2 °F 18.7 °F 80% 30.10 in 10.0 mi WSW 9.2 mph - N/A   Scattered Clouds
3:55 AM 24.6 °F 15.1 °F 19.4 °F 81% 30.10 in 10.0 mi WSW 9.2 mph - N/A   Overcast
4:15 AM 24.8 °F 16.1 °F 20.1 °F 82% 30.10 in 10.0 mi WSW 8.1 mph - N/A   Overcast
4:35 AM 25.5 °F 16.2 °F 21.0 °F 83% 30.10 in 10.0 mi WSW 9.2 mph - N/A   Overcast
4:55 AM 25.7 °F 17.1 °F 21.2 °F 83% 30.10 in 10.0 mi WSW 8.1 mph - N/A   Overcast
5:15 AM 26.1 °F 16.8 °F 21.7 °F 84% 30.11 in 10.0 mi WSW 9.2 mph - N/A   Overcast
5:35 AM 26.6 °F 16.8 °F 22.1 °F 83% 30.11 in 10.0 mi WSW 10.4 mph - N/A   Overcast
5:55 AM 27.3 °F 17.7 °F 23.2 °F 84% 30.12 in 7.0 mi WSW 10.4 mph - N/A   Overcast
6:15 AM 27.3 °F 17.1 °F 23.4 °F 85% 30.12 in 7.0 mi WSW 11.5 mph - N/A   Overcast
6:35 AM 27.5 °F 18.0 °F 23.9 °F 86% 30.12 in 7.0 mi WSW 10.4 mph - N/A   Overcast
6:55 AM 28.4 °F 18.5 °F 24.8 °F 86% 30.13 in 7.0 mi WSW 11.5 mph 16.1 mph N/A   Overcast
7:15 AM 28.0 °F 18.1 °F 24.6 °F 87% 30.13 in 7.0 mi West 11.5 mph - N/A   Overcast
7:35 AM 28.2 °F 18.9 °F 24.8 °F 87% 30.13 in 7.0 mi West 10.4 mph - N/A   Overcast
7:55 AM 28.4 °F 19.1 °F 25.2 °F 88% 30.14 in 5.0 mi West 10.4 mph - N/A   Overcast
8:15 AM 28.4 °F 18.0 °F 25.3 °F 88% 30.14 in 5.0 mi West 12.7 mph - N/A   Mostly Cloudy
8:35 AM 28.9 °F 19.2 °F 25.3 °F 86% 30.15 in 5.0 mi West 11.5 mph 16.1 mph N/A   Mostly Cloudy
8:55 AM 28.9 °F 17.7 °F 24.8 °F 84% 30.16 in 7.0 mi WNW 15.0 mph - N/A   Overcast
9:15 AM 29.1 °F 17.9 °F 23.9 °F 81% 30.17 in 10.0 mi West 15.0 mph 20.7 mph N/A   Overcast
9:35 AM 29.3 °F 18.2 °F 23.0 °F 77% 30.17 in 10.0 mi WNW 15.0 mph 23.0 mph N/A   Overcast
9:55 AM 30.4 °F 18.4 °F 18.9 °F 62% 30.18 in 10.0 mi West 18.4 mph 24.2 mph N/A   Mostly Cloudy
10:15 AM 31.3 °F 19.9 °F 19.4 °F 61% 30.19 in 10.0 mi WNW 17.3 mph - N/A   Mostly Cloudy
10:35 AM 30.9 °F 19.1 °F 19.0 °F 61% 30.19 in 10.0 mi WNW 18.4 mph 24.2 mph N/A   Scattered Clouds
10:55 AM 31.1 °F 19.3 °F 19.2 °F 61% 30.19 in 10.0 mi WNW 18.4 mph 24.2 mph N/A   Scattered Clouds
11:15 AM 30.0 °F 18.3 °F 18.9 °F 63% 30.18 in 10.0 mi WNW 17.3 mph 23.0 mph N/A   Mostly Cloudy
11:35 AM 29.8 °F 19.3 °F 19.6 °F 66% 30.18 in 10.0 mi WNW 13.8 mph 21.9 mph N/A   Overcast
11:55 AM 30.4 °F 19.1 °F 19.2 °F 63% 30.18 in 10.0 mi WNW 16.1 mph 20.7 mph N/A   Overcast
12:15 PM 30.0 °F 17.9 °F 18.3 °F 62% 30.18 in 10.0 mi NW 18.4 mph 23.0 mph N/A   Overcast
12:35 PM 30.0 °F 18.7 °F 18.3 °F 62% 30.18 in 10.0 mi WNW 16.1 mph 24.2 mph N/A   Overcast
12:55 PM 30.0 °F 20.0 °F 18.5 °F 62% 30.18 in 10.0 mi WNW 12.7 mph - N/A   Overcast
1:15 PM 29.8 °F 19.3 °F 18.1 °F 62% 30.18 in 10.0 mi WNW 13.8 mph - N/A   Overcast
1:35 PM 29.7 °F 20.1 °F 17.1 °F 59% 30.18 in 10.0 mi WNW 11.5 mph - N/A   Overcast
1:55 PM 29.8 °F 19.3 °F 17.2 °F 59% 30.19 in 10.0 mi WNW 13.8 mph - N/A   Overcast
2:15 PM 29.8 °F 19.3 °F 17.1 °F 59% 30.19 in 10.0 mi West 13.8 mph - N/A   Overcast
2:35 PM 29.8 °F 20.3 °F 17.4 °F 60% 30.20 in 10.0 mi WNW 11.5 mph - N/A   Overcast
2:55 PM 29.7 °F 20.1 °F 17.8 °F 61% 30.21 in 10.0 mi NW 11.5 mph 17.3 mph N/A   Overcast
3:15 PM 29.1 °F 18.9 °F 18.5 °F 65% 30.21 in 10.0 mi NW 12.7 mph - N/A   Overcast
3:35 PM 28.9 °F 18.6 °F 18.5 °F 65% 30.21 in 10.0 mi WNW 12.7 mph - N/A   Overcast
3:55 PM 28.4 °F 18.0 °F 18.1 °F 65% 30.22 in 10.0 mi WNW 12.7 mph - N/A   Overcast
4:15 PM 27.5 °F 18.0 °F 18.3 °F 68% 30.23 in 10.0 mi WNW 10.4 mph - N/A   Overcast
4:35 PM 26.6 °F 16.2 °F 19.4 °F 74% 30.23 in 10.0 mi West 11.5 mph - N/A   Overcast
4:55 PM 26.6 °F 15.7 °F 18.3 °F 71% 30.24 in 10.0 mi West 12.7 mph - N/A   Overcast
5:15 PM 26.4 °F 15.0 °F 18.7 °F 73% 30.24 in 10.0 mi West 13.8 mph - N/A   Overcast
5:35 PM 26.1 °F 15.0 °F 18.5 °F 73% 30.25 in 10.0 mi WNW 12.7 mph 18.4 mph N/A   Overcast
5:55 PM 25.7 °F 15.1 °F 18.5 °F 74% 30.25 in 10.0 mi West 11.5 mph - N/A   Overcast
6:15 PM 25.5 °F 14.9 °F 18.5 °F 75% 30.26 in 10.0 mi West 11.5 mph - N/A   Overcast
6:35 PM 25.2 °F 14.4 °F 18.3 °F 75% 30.26 in 10.0 mi West 11.5 mph - N/A   Overcast
6:55 PM 24.6 °F 12.7 °F 18.1 °F 76% 30.26 in 10.0 mi West 13.8 mph - N/A   Overcast
7:15 PM 23.9 °F 12.3 °F 17.6 °F 77% 30.27 in 10.0 mi West 12.7 mph 17.3 mph N/A   Overcast
7:35 PM 23.7 °F 13.3 °F 17.6 °F 77% 30.27 in 10.0 mi West 10.4 mph - N/A   Overcast
7:55 PM 23.0 °F 13.9 °F 17.4 °F 79% 30.27 in 10.0 mi West 8.1 mph - N/A   Overcast
8:15 PM 22.8 °F 12.9 °F 16.7 °F 77% 30.28 in 10.0 mi WNW 9.2 mph - N/A   Overcast
8:35 PM 21.7 °F 13.2 °F 16.2 °F 79% 30.27 in 10.0 mi West 6.9 mph - N/A   Overcast
8:55 PM 21.0 °F 10.6 °F 16.0 °F 81% 30.28 in 10.0 mi WNW 9.2 mph - N/A   Scattered Clouds
9:15 PM 20.3 °F 10.6 °F 15.8 °F 83% 30.28 in 10.0 mi West 8.1 mph - N/A   Clear
9:35 PM 20.1 °F 8.8 °F 15.8 °F 83% 30.28 in 10.0 mi West 10.4 mph - N/A   Clear
9:55 PM 19.4 °F 8.6 °F 15.4 °F 85% 30.27 in 10.0 mi West 9.2 mph - N/A   Clear
10:15 PM 18.5 °F 8.4 °F 14.9 °F 86% 30.27 in 10.0 mi West 8.1 mph - N/A   Clear
10:35 PM 18.3 °F 8.2 °F 15.3 °F 88% 30.27 in 10.0 mi West 8.1 mph - N/A   Clear
10:55 PM 18.1 °F 7.1 °F 15.1 °F 88% 30.27 in 10.0 mi West 9.2 mph - N/A   Clear
11:15 PM 18.1 °F 6.3 °F 14.9 °F 87% 30.26 in 10.0 mi West 10.4 mph - N/A   Clear
11:35 PM 17.4 °F 6.2 °F 14.4 °F 88% 30.26 in 10.0 mi West 9.2 mph - N/A   Clear
11:55 PM 17.1 °F 5.8 °F 14.0 °F 88% 30.26 in 10.0 mi West 9.2 mph - N/A   Clear